This is the latest recevied weather packets stored in our database for station/object KB3HLL. If no packets are shown the sender has not sent any weather packets the latest 1 day(s).
| Time | Temp. | Humidity | Pressure | Rain* | Wind** | Luminosity | Snow |
|---|---|---|---|---|---|---|---|
| 1778027777 | 18.89° C | 68% | 1010.8 hPa | 0 mm | 0.45 m/s, 326° | 0 W/m² | - |
| 1778027478 | 18.89° C | 68% | 1010.8 hPa | 0 mm | 0.89 m/s, 234° | 0 W/m² | - |
| 1778027179 | 18.89° C | 68% | 1010.7 hPa | 0 mm | 0.89 m/s, 237° | 0 W/m² | - |
| 1778026877 | 18.89° C | 68% | 1010.7 hPa | 0 mm | 1.34 m/s, 260° | 1 W/m² | - |
| 1778026577 | 18.89° C | 68% | 1010.7 hPa | 0 mm | 0.45 m/s, 259° | 1 W/m² | - |
| 1778026277 | 18.89° C | 68% | 1010.6 hPa | 0 mm | 0 m/s | 1 W/m² | - |
| 1778025977 | 18.89° C | 68% | 1010.6 hPa | 0 mm | 0.89 m/s, 224° | 2 W/m² | - |
| 1778025678 | 19.44° C | 67% | 1010.6 hPa | 0 mm | 0.89 m/s, 252° | 3 W/m² | - |
| 1778025380 | 19.44° C | 67% | 1010.5 hPa | 0 mm | 0.45 m/s, 263° | 4 W/m² | - |
| 1778025078 | 19.44° C | 67% | 1010.4 hPa | 0 mm | 0.89 m/s, 290° | 5 W/m² | - |
| 1778024777 | 19.44° C | 67% | 1010.3 hPa | 0 mm | 1.34 m/s, 291° | 9 W/m² | - |
| 1778024477 | 19.44° C | 66% | 1010.2 hPa | 0 mm | 1.34 m/s, 305° | 13 W/m² | - |
| 1778024178 | 19.44° C | 67% | 1010.3 hPa | 0 mm | 1.79 m/s, 287° | 13 W/m² | - |
| 1778023878 | 19.44° C | 67% | 1010.3 hPa | 0 mm | 0.89 m/s, 294° | 18 W/m² | - |
| 1778023577 | 19.44° C | 66% | 1010.2 hPa | 0 mm | 1.34 m/s, 310° | 18 W/m² | - |
| 1778023278 | 19.44° C | 66% | 1010.2 hPa | 0 mm | 1.79 m/s, 304° | 29 W/m² | - |
| 1778022977 | 19.44° C | 66% | 1010.2 hPa | 0 mm | 0.45 m/s, 301° | 40 W/m² | - |
| 1778022678 | 19.44° C | 65% | 1010.2 hPa | 0 mm | 1.34 m/s, 316° | 58 W/m² | - |
| 1778022377 | 19.44° C | 65% | 1010.2 hPa | 0 mm | 1.34 m/s, 321° | 65 W/m² | - |
| 1778022080 | 19.44° C | 65% | 1010.1 hPa | 0 mm | 1.34 m/s, 329° | 61 W/m² | - |
| 1778021777 | 19.44° C | 65% | 1010.1 hPa | 0 mm | 1.34 m/s, 320° | 46 W/m² | - |
| 1778021478 | 20° C | 65% | 1010.2 hPa | 0 mm | 1.34 m/s, 311° | 34 W/m² | - |
| 1778021178 | 20° C | 64% | 1010.3 hPa | 0 mm | 1.34 m/s, 318° | 22 W/m² | - |
| 1778020878 | 20° C | 63% | 1010.4 hPa | 0 mm | 0.89 m/s, 316° | 41 W/m² | - |
| 1778020578 | 20° C | 63% | 1010.4 hPa | 0 mm | 1.34 m/s, 305° | 46 W/m² | - |
* Rain latest hour (hover to see other rain measurements)
** Current wind speed in m/s (hover to see current wind gust speed)